Eugene, OR

6:27 AM PDT on October 17, 2017 (GMT -0700)
Mahlon Sweet

Weather History for KEUG - November, 2012

Change the Weather History Date:

Saturday, November 3, 2012

  Actual Average Record
Temperature  
Mean Temperature 59 °F 48 °F  
Max Temperature 65 °F 56 °F 76 °F (1975)
Min Temperature 53 °F 39 °F 15 °F (1935)
Degree Days  
Heating Degree Days 6 17  
Month to date heating degree days 32 51  
Since 1 July heating degree days 458 621  
Cooling Degree Days 0 0  
Month to date cooling degree days 0 0  
Year to date cooling degree days 230 239  
Growing Degree Days 8 (Base 50)    
Moisture  
Dew Point 55 °F    
Average Humidity 87    
Maximum Humidity 100    
Minimum Humidity 73    
Precipitation  
Precipitation T in 0.19 in 1.38 in (1972)
Month to date precipitation 0.57 0.56  
Year to date precipitation 35.70 31.11  
Snow  
Snow 0.00 in - - ()
Month to date snowfall 0.0  
Since 1 July snowfall 0.0  
Since 1 September snowfall 0.0  
Snow Depth 0.00 in    
Sea Level Pressure  
Sea Level Pressure 30.13 in    
Wind  
Wind Speed 5 mph (SSW)    
Max Wind Speed 13 mph    
Max Gust Speed 16 mph    
Visibility 10 miles    
Events Rain    
T = Trace of Precipitation, MM = Missing Value Source: NWS Daily Summary

Daily Weather History Graph

Daily Weather History Graph

Search for Another Location

Airport or City:

Trip Planner

Search our weather history database for the weather conditions in past years. The results will help you decide how hot, cold, wet, or windy it might be!

Date:

Astronomy

Nov. 03, 2012 Rise Set
Actual Time 7:53 AM PDT 5:59 PM PDT
Civil Twilight 7:22 AM PDT 6:29 PM PDT
Nautical Twilight 6:48 AM PDT 7:03 PM PDT
Astronomical Twilight 6:14 AM PDT 7:37 PM PDT
Moon 9:42 PM PDT (11/3) 12:04 PM PDT (11/3)
Length of Visible Light 11h 06m
Length of Day
10h 06m
Waning Gibbous, 79% of the Moon is Illuminated
Nov 3
Waning Gibbous
Nov 6
Last Quarter
Nov 13
New
Nov 20
First Quarter
Nov 28
Full

Hourly Weather History & Observations

Time (PDT) Temp. Dew Point Humidity Pressure Visibility Wind Dir Wind Speed Gust Speed Precip Events Conditions
12:54 AM 54.0 °F 53.1 °F 97% 30.01 in 5.0 mi South 4.6 mph - 0.01 in Rain Light Rain
1:54 AM 54.0 °F 53.1 °F 97% 30.01 in 10.0 mi SSW 4.6 mph - 0.00 in   Overcast
2:54 AM 54.0 °F 53.1 °F 97% 30.02 in 10.0 mi Calm Calm - N/A   Overcast
3:54 AM 54.0 °F 53.1 °F 97% 30.04 in 10.0 mi SSE 3.5 mph - N/A   Overcast
4:54 AM 54.0 °F 53.1 °F 97% 30.05 in 10.0 mi SSW 4.6 mph - N/A   Overcast
5:54 AM 54.0 °F 53.1 °F 97% 30.07 in 9.0 mi SW 4.6 mph - 0.00 in   Light Drizzle
6:28 AM 53.6 °F 51.8 °F 94% 30.08 in 9.0 mi South 5.8 mph - 0.00 in   Overcast
6:54 AM 54.0 °F 53.1 °F 97% 30.09 in 10.0 mi South 4.6 mph - 0.00 in   Overcast
7:54 AM 55.0 °F 52.0 °F 89% 30.11 in 10.0 mi South 5.8 mph - N/A   Overcast
8:54 AM 55.9 °F 53.1 °F 90% 30.13 in 10.0 mi South 9.2 mph - N/A   Overcast
9:26 AM 57.2 °F 53.6 °F 88% 30.13 in 10.0 mi South 10.4 mph - N/A   Mostly Cloudy
9:54 AM 59.0 °F 54.0 °F 83% 30.13 in 10.0 mi South 10.4 mph - N/A   Mostly Cloudy
10:54 AM 62.1 °F 55.9 °F 80% 30.14 in 10.0 mi SW 10.4 mph - N/A   Overcast
11:54 AM 63.0 °F 55.9 °F 78% 30.15 in 10.0 mi SSW 10.4 mph - N/A   Overcast
12:54 PM 64.9 °F 57.0 °F 75% 30.16 in 10.0 mi WSW 9.2 mph - N/A   Overcast
1:54 PM 64.9 °F 55.9 °F 73% 30.15 in 10.0 mi WSW 8.1 mph - N/A   Overcast
2:54 PM 64.0 °F 55.9 °F 75% 30.16 in 10.0 mi WSW 5.8 mph - N/A   Overcast
3:54 PM 63.0 °F 55.9 °F 78% 30.17 in 10.0 mi WSW 8.1 mph - N/A   Overcast
4:54 PM 63.0 °F 55.9 °F 78% 30.18 in 10.0 mi West 4.6 mph - N/A   Overcast
5:54 PM 62.1 °F 57.0 °F 84% 30.18 in 10.0 mi Calm Calm - N/A   Overcast
6:54 PM 59.0 °F 57.0 °F 93% 30.18 in 10.0 mi Calm Calm - 0.00 in   Overcast
7:54 PM 57.9 °F 55.9 °F 93% 30.18 in 10.0 mi SW 3.5 mph - N/A   Overcast
8:54 PM 57.0 °F 55.9 °F 96% 30.18 in 10.0 mi WSW 3.5 mph - 0.00 in   Overcast
9:54 PM 57.0 °F 55.9 °F 96% 30.19 in 8.0 mi Calm Calm - N/A   Overcast
10:54 PM 57.9 °F 57.0 °F 97% 30.18 in 10.0 mi SSW 4.6 mph - N/A   Overcast
11:54 PM 57.0 °F 57.0 °F 100% 30.19 in 9.0 mi Calm Calm - N/A   Overcast